Weather History for Mackinac Island, MI

Change the Weather History Date:

Thursday, February 6, 2014

  Actual Average Record
Temperature  
Mean Temperature 6 °F -  
Max Temperature 10 °F 25 °F 48 °F (2005)
Min Temperature 3 °F 14 °F -14 °F (1977)
Degree Days  
Heating Degree Days 58    
Moisture  
Dew Point 3 °F    
Average Humidity 84    
Maximum Humidity 88    
Minimum Humidity 76    
Precipitation  
Precipitation 0.00 in - - ()
Sea Level Pressure  
Sea Level Pressure 30.15 in    
Wind  
Wind Speed 8 mph (WSW)    
Max Wind Speed 17 mph    
Max Gust Speed 26 mph    
Visibility 8 miles    
Events Snow    
Averages and records for this station are not official NWS values.
T = Trace of Precipitation, MM = Missing Value Source: NWS Daily Summary

Daily Weather History Graph

Daily Weather History Graph

Search for Another Location

Airport:

Trip Planner

Search our weather history database for the weather conditions in past years. The results will help you decide how hot, cold, wet, or windy it might be!

Date:

Astronomy

Feb. 06, 2014 Rise Set
Actual Time 7:54 AM EST 5:51 PM EST
Civil Twilight 7:22 AM EST 6:23 PM EST
Nautical Twilight 6:47 AM EST 6:58 PM EST
Astronomical Twilight 6:12 AM EST 7:33 PM EST
Moon 11:22 AM EST (2/6) 1:08 AM EST (2/6)
Length of Visible Light 11h 00m
Length of Day
9h 57m
Waxing Crescent, 49% of the Moon is Illuminated
Feb 6
Waxing Crescent
Feb 6
First Quarter
Feb 14
Full
Feb 22
Last Quarter
Mar 1
New

Hourly Weather History & Observations

Time (EST) Temp. Windchill Dew Point Humidity Pressure Visibility Wind Dir Wind Speed Gust Speed Precip Events Conditions
12:14 AM 3.2 °F -11.3 °F -1.3 °F 82% 30.30 in 10.0 mi West 9.2 mph - N/A   Scattered Clouds
12:35 AM 3.2 °F -11.3 °F -1.3 °F 82% 30.29 in 10.0 mi West 9.2 mph - N/A   Mostly Cloudy
12:54 AM 3.2 °F -10.3 °F -1.3 °F 82% 30.29 in 10.0 mi West 8.1 mph - N/A   Scattered Clouds
1:14 AM 3.2 °F -10.3 °F -0.9 °F 83% 30.29 in 10.0 mi West 8.1 mph - N/A   Mostly Cloudy
1:34 AM 3.6 °F -8.7 °F -0.8 °F 82% 30.28 in 10.0 mi West 6.9 mph - N/A   Overcast
1:54 AM 3.9 °F -6.9 °F -0.4 °F 82% 30.27 in 10.0 mi West 5.8 mph - N/A   Overcast
2:14 AM 4.1 °F -8.0 °F -0.4 °F 82% 30.27 in 10.0 mi West 6.9 mph - N/A   Overcast
2:34 AM 4.3 °F -6.5 °F 0.1 °F 83% 30.27 in 10.0 mi WSW 5.8 mph - N/A   Overcast
2:54 AM 4.6 °F -6.0 °F 0.9 °F 84% 30.27 in 10.0 mi WSW 5.8 mph - N/A   Overcast
3:15 AM 4.8 °F -5.8 °F 0.7 °F 83% 30.26 in 10.0 mi WSW 5.8 mph - N/A   Overcast
3:34 AM 4.6 °F -7.4 °F 0.9 °F 84% 30.25 in 10.0 mi WSW 6.9 mph - N/A   Overcast
3:54 AM 4.5 °F -9.8 °F 0.5 °F 84% 30.25 in 10.0 mi WSW 9.2 mph - N/A   Overcast
4:15 AM 4.1 °F -8.0 °F 0.5 °F 85% 30.24 in 10.0 mi WSW 6.9 mph - N/A   Overcast
4:34 AM 3.6 °F -8.7 °F 0.1 °F 86% 30.23 in 10.0 mi West 6.9 mph - N/A   Overcast
4:54 AM 3.9 °F -9.4 °F 0.5 °F 86% 30.22 in 10.0 mi West 8.1 mph - N/A   Overcast
5:15 AM 4.1 °F -9.2 °F 0.9 °F 86% 30.22 in 10.0 mi West 8.1 mph - N/A   Overcast
5:34 AM 4.1 °F -6.7 °F 0.7 °F 86% 30.22 in 10.0 mi WNW 5.8 mph - N/A   Overcast
5:54 AM 4.3 °F -4.9 °F 1.0 °F 86% 30.22 in 10.0 mi WNW 4.6 mph - N/A   Overcast
6:15 AM 4.5 °F -2.7 °F 1.2 °F 86% 30.21 in 10.0 mi West 3.5 mph - N/A   Overcast
6:34 AM 3.7 °F -7.1 °F 0.5 °F 86% 30.22 in 10.0 mi SSW 5.8 mph - N/A   Overcast
6:54 AM 4.1 °F -3.2 °F 1.2 °F 88% 30.21 in 10.0 mi SW 3.5 mph - N/A   Overcast
7:15 AM 3.9 °F -6.9 °F 1.0 °F 88% 30.21 in 10.0 mi SSW 5.8 mph - N/A Snow Light Snow
7:34 AM 3.9 °F -8.2 °F 0.9 °F 87% 30.21 in 7.0 mi SW 6.9 mph - N/A Snow Light Snow
7:55 AM 3.9 °F -6.9 °F 1.0 °F 88% 30.21 in 5.0 mi SSW 5.8 mph - N/A Snow Light Snow
8:14 AM 4.1 °F -6.7 °F 1.0 °F 87% 30.20 in 0.8 mi SSW 5.8 mph - N/A Snow Light Snow
8:34 AM 4.3 °F -6.5 °F 1.4 °F 88% 30.20 in 1.2 mi WSW 5.8 mph - N/A Snow Light Snow
8:55 AM 4.8 °F -2.3 °F 1.8 °F 87% 30.20 in 1.5 mi SSW 3.5 mph - N/A Snow Light Snow
9:14 AM 5.0 °F -2.1 °F 2.1 °F 88% 30.19 in 1.5 mi SSW 3.5 mph - N/A Snow Light Snow
9:34 AM 5.2 °F -1.9 °F 2.1 °F 87% 30.18 in 5.0 mi SSW 3.5 mph - N/A Snow Light Snow
9:55 AM 5.5 °F -1.5 °F 2.1 °F 86% 30.17 in 10.0 mi SW 3.5 mph - N/A   Overcast
10:14 AM 5.9 °F -4.5 °F 2.1 °F 84% 30.17 in 10.0 mi SW 5.8 mph - N/A   Overcast
10:34 AM 6.6 °F -2.2 °F 2.3 °F 82% 30.17 in 10.0 mi SW 4.6 mph - N/A   Overcast
10:55 AM 6.8 °F -3.5 °F 2.8 °F 84% 30.17 in 10.0 mi WSW 5.8 mph - N/A Snow Light Snow
11:14 AM 7.5 °F -3.9 °F 3.2 °F 82% 30.17 in 10.0 mi WSW 6.9 mph - N/A Snow Light Snow
11:34 AM 8.2 °F -1.8 °F 3.7 °F 82% 30.16 in 3.0 mi WSW 5.8 mph - N/A Snow Light Snow
11:55 AM 8.1 °F -5.3 °F 3.6 °F 82% 30.15 in 3.0 mi WSW 9.2 mph - N/A Snow Light Snow
12:14 PM 8.6 °F -2.6 °F 4.1 °F 82% 30.15 in 10.0 mi WSW 6.9 mph - N/A Snow Light Snow
12:34 PM 8.4 °F -3.9 °F 4.5 °F 84% 30.13 in 7.0 mi WSW 8.1 mph - N/A Snow Light Snow
12:55 PM 9.0 °F -0.9 °F 4.5 °F 82% 30.13 in 10.0 mi WSW 5.8 mph - N/A Snow Light Snow
1:14 PM 9.5 °F -2.6 °F 5.2 °F 83% 30.12 in 10.0 mi WSW 8.1 mph 17.3 mph N/A   Overcast
1:34 PM 10.0 °F -0.9 °F 5.2 °F 81% 30.11 in 10.0 mi WSW 6.9 mph 18.4 mph N/A   Overcast
1:55 PM 10.4 °F -3.3 °F 5.2 °F 79% 30.10 in 7.0 mi WSW 10.4 mph 21.9 mph N/A   Overcast
2:14 PM 10.4 °F -6.6 °F 5.2 °F 79% 30.10 in 7.0 mi WSW 16.1 mph 24.2 mph N/A   Overcast
2:35 PM 10.6 °F -4.5 °F 5.5 °F 80% 30.09 in 4.0 mi WSW 12.7 mph 24.2 mph N/A   Haze
2:54 PM 10.4 °F -4.8 °F 5.5 °F 81% 30.09 in 5.0 mi WSW 12.7 mph 21.9 mph N/A Snow Light Snow
3:14 PM 10.9 °F -3.4 °F 6.4 °F 82% 30.09 in 5.0 mi WSW 11.5 mph 20.7 mph N/A Snow Light Snow
3:35 PM 10.6 °F -5.2 °F 6.6 °F 84% 30.08 in 2.5 mi WSW 13.8 mph 26.5 mph N/A Snow Light Snow
3:54 PM 10.8 °F -4.3 °F 7.0 °F 85% 30.08 in 2.5 mi WSW 12.7 mph 25.3 mph N/A Snow Light Snow
4:14 PM 10.8 °F -3.6 °F 6.8 °F 84% 30.08 in 5.0 mi WSW 11.5 mph 23.0 mph N/A Snow Light Snow
4:35 PM 10.8 °F -6.2 °F 7.5 °F 87% 30.08 in 2.0 mi WSW 16.1 mph 25.3 mph N/A Snow Light Snow
4:54 PM 10.4 °F -6.0 °F 6.8 °F 85% 30.08 in 5.0 mi WSW 15.0 mph 21.9 mph N/A Snow Light Snow
5:14 PM 10.4 °F -4.8 °F 6.8 °F 85% 30.07 in 10.0 mi WSW 12.7 mph 23.0 mph N/A Snow Light Snow
5:35 PM 10.4 °F -4.1 °F 6.8 °F 85% 30.07 in 7.0 mi WSW 11.5 mph 20.7 mph N/A Snow Light Snow
5:54 PM 10.4 °F -6.6 °F 7.2 °F 87% 30.07 in 4.0 mi WSW 16.1 mph 25.3 mph N/A Snow Light Snow
6:14 PM 10.4 °F -4.1 °F 7.2 °F 87% 30.06 in 10.0 mi WSW 11.5 mph 20.7 mph N/A   Overcast
6:35 PM 10.4 °F -5.4 °F 7.5 °F 88% 30.06 in 7.0 mi WSW 13.8 mph 20.7 mph N/A Snow Light Snow
6:54 PM 10.4 °F -5.4 °F 7.3 °F 87% 30.06 in 10.0 mi WSW 13.8 mph 20.7 mph N/A   Overcast
7:14 PM 10.4 °F -3.3 °F 6.6 °F 85% 30.06 in 10.0 mi WSW 10.4 mph 19.6 mph N/A   Overcast
7:35 PM 10.4 °F -4.8 °F 7.0 °F 86% 30.06 in 7.0 mi WSW 12.7 mph 23.0 mph N/A Snow Light Snow
7:54 PM 10.2 °F -3.5 °F 7.2 °F 87% 30.05 in 4.0 mi WSW 10.4 mph 19.6 mph N/A Snow Light Snow
8:15 PM 10.2 °F -2.7 °F 6.6 °F 85% 30.05 in 7.0 mi WSW 9.2 mph 16.1 mph N/A Snow Light Snow
8:34 PM 10.4 °F -4.1 °F 6.4 °F 84% 30.05 in 10.0 mi WSW 11.5 mph 16.1 mph N/A   Overcast
8:54 PM 10.9 °F -4.1 °F 6.1 °F 81% 30.05 in 7.0 mi WSW 12.7 mph 19.6 mph N/A Snow Light Snow
9:15 PM 10.9 °F -5.4 °F 6.1 °F 81% 30.05 in 5.0 mi WSW 15.0 mph 23.0 mph N/A Snow Light Snow
9:34 PM 10.8 °F -5.0 °F 5.9 °F 81% 30.05 in 5.0 mi WSW 13.8 mph 23.0 mph N/A   Haze
9:54 PM 10.4 °F -6.0 °F 4.8 °F 78% 30.05 in 10.0 mi WSW 15.0 mph 24.2 mph N/A   Overcast
10:15 PM 9.7 °F -6.3 °F 4.3 °F 79% 30.05 in 10.0 mi WSW 13.8 mph 21.9 mph N/A   Overcast
10:34 PM 9.3 °F -6.8 °F 3.9 °F 79% 30.05 in 10.0 mi WSW 13.8 mph 19.6 mph N/A   Scattered Clouds
10:54 PM 8.6 °F -6.3 °F 3.0 °F 78% 30.04 in 10.0 mi WSW 11.5 mph 20.7 mph N/A   Clear
11:15 PM 7.7 °F -7.4 °F 2.3 °F 79% 30.04 in 10.0 mi WSW 11.5 mph 19.6 mph N/A   Clear
11:34 PM 7.7 °F -10.7 °F 2.1 °F 78% 30.04 in 10.0 mi WSW 17.3 mph 23.0 mph N/A   Clear
11:54 PM 8.4 °F -7.3 °F 2.3 °F 76% 30.04 in 10.0 mi WSW 12.7 mph 20.7 mph N/A   Scattered Clouds